Погода в Шанаге

Россия / Республика Бурятия     50°49′50″N   108°08′56″E
темп.,
°C
ветер,
м/с
пор.,
м/с
влажн.,
%
обл.,
%
осадки,
мм/ч
давл.,
гПа
погр.,
м
17 апреля, сб
сб1723:00−1ююв22491 0.0 101920
02:00−2ююв22545 0.0 101828
05:00−2юв22585 0.0 101628
08:00+3ююв12415 0.0 1014225
11:00+10зсз35325 0.0 1010701
14:00+15зюз59240 0.0 10062069
17:00+15з58260 0.0 10042178
20:00+9юв11404 0.0 100414
18 апреля, вс
вс1823:00+5в22536 0.0 100513
02:00+3з2260100 0.0 100818
05:000зюз239293 0.0 101287
08:00+2сз346983 0.0 1015855
11:00+4ссз4551100 0.0 10171288
14:00+7ссз663297 0.0 10161821
17:00+6ссз553173 0.1 10171695
20:00+1ссз22404 0.1 102022
19 апреля, пн
пн1923:00−2св22517 0.0 102319
02:00−3всв115291 0.0 102218
05:00−4в22551 0.0 102221
08:000всв22395 0.0 1020321
11:00+10з03290 0.0 10141034
14:00+13з47300 0.0 10091136
17:00+16юз69270 0.0 10052181
20:00+9ю33440 0.0 100621
20 апреля, вт
вт2023:00+7ююв244812 0.0 100647
02:00+5зюз0155100 0.0 100712
05:00+1зсз1178100 0.0 101311
08:00+3с236399 0.0 1015546
11:00+7ссв443995 0.0 10141288
14:00+9ссв4331100 0.0 10111458
17:00+8ссв5536100 0.0 10111049
20:00+4с3657100 0.0 1014258
21 апреля, ср
ср2123:00+2ссв2266100 0.0 101458
02:000ссв1168100 0.0 101423
05:00−2ссв116799 0.0 101413
08:00+1ссз2343100 0.0 1015472
11:00+6с343358 0.0 10131196
14:00+9с5430100 0.0 10091692
17:00+8с6539100 0.0 10091579
20:00+2с37635 0.0 1011240